Weather History for Bastrop, LA

Change the Weather History Date:

Saturday, February 9, 2013

  Actual Average (KMLU) Record (KMLU)
Temperature  
Mean Temperature 48 °F 49 °F  
Max Temperature 58 °F 60 °F 86 °F (1932)
Min Temperature 38 °F 38 °F 15 °F (1933)
Degree Days  
Heating Degree Days 18 16  
Month to date heating degree days 150  
Since 1 July heating degree days 1631  
Cooling Degree Days 0 0  
Month to date cooling degree days 0  
Year to date cooling degree days 4  
Moisture  
Dew Point 40 °F    
Average Humidity 73    
Maximum Humidity 91    
Minimum Humidity 52    
Precipitation  
Precipitation 0.00 in 0.16 in 4.46 in (1966)
Month to date precipitation 1.42  
Year to date precipitation 6.43  
Snow  
Snow 0.00 in - - ()
Month to date snowfall  
Since 1 July snowfall  
Snow Depth -    
Sea Level Pressure  
Sea Level Pressure 30.16 in    
Wind  
Wind Speed 1 mph (ENE)    
Max Wind Speed 8 mph    
Max Gust Speed -    
Visibility 8 miles    
Events      
T = Trace of Precipitation, MM = Missing Value Source: NWS Daily Summary

Daily Weather History Graph

Daily Weather History Graph

Search for Another Location

Airport:

Trip Planner

Search our weather history database for the weather conditions in past years. The results will help you decide how hot, cold, wet, or windy it might be!

Date:

Astronomy

Feb. 09, 2013 Rise Set
Actual Time 6:55 AM CST 5:47 PM CST
Civil Twilight 6:30 AM CST 6:13 PM CST
Nautical Twilight 6:01 AM CST 6:42 PM CST
Astronomical Twilight 5:32 AM CST 7:11 PM CST
Moon 6:08 AM CST (2/9) 5:29 PM CST (2/9)
Length of Visible Light 11h 42m
Length of Day
10h 52m
Waning Crescent, 0% of the Moon is Illuminated
Feb 9
Waning Crescent
Feb 10
New
Feb 17
First Quarter
Feb 25
Full
Mar 4
Last Quarter

Hourly Weather History & Observations

Time (CST) Temp. Windchill Dew Point Humidity Pressure Visibility Wind Dir Wind Speed Gust Speed Precip Events Conditions
12:15 AM 42.3 °F - 36.7 °F 81% 30.25 in 5.0 mi Calm Calm - N/A   Haze
12:35 AM 41.9 °F - 36.5 °F 81% 30.25 in 5.0 mi Calm Calm - N/A   Haze
12:55 AM 41.7 °F 39.8 °F 36.5 °F 82% 30.25 in 5.0 mi ENE 3.5 mph - N/A   Haze
1:15 AM 41.4 °F 37.6 °F 36.5 °F 83% 30.25 in 5.0 mi ENE 5.8 mph - N/A   Clear
1:35 AM 41.2 °F - 36.5 °F 83% 30.25 in 5.0 mi Calm Calm - N/A   Haze
1:55 AM 41.0 °F - 36.5 °F 84% 30.25 in 5.0 mi Calm Calm - N/A   Haze
2:15 AM 40.5 °F - 36.3 °F 85% 30.24 in 5.0 mi Calm Calm - N/A   Haze
2:35 AM 40.3 °F - 36.5 °F 86% 30.24 in 5.0 mi Calm Calm - N/A   Clear
2:55 AM 40.1 °F - 36.1 °F 86% 30.25 in 5.0 mi Calm Calm - N/A   Clear
3:15 AM 39.6 °F - 36.1 °F 88% 30.24 in 4.0 mi Calm Calm - N/A   Clear
3:35 AM 39.4 °F - 36.0 °F 88% 30.25 in 4.0 mi Calm Calm - N/A   Clear
3:55 AM 38.7 °F - 35.8 °F 89% 30.25 in 4.0 mi Calm Calm - N/A   Clear
4:15 AM 38.5 °F - 35.8 °F 90% 30.25 in 4.0 mi Calm Calm - N/A   Clear
4:35 AM 38.3 °F - 35.6 °F 90% 30.25 in 4.0 mi Calm Calm - N/A   Clear
4:55 AM 38.1 °F - 35.6 °F 91% 30.22 in 4.0 mi Calm Calm - N/A   Clear
5:15 AM 38.5 °F - 35.6 °F 89% 30.22 in 4.0 mi Calm Calm - N/A   Clear
5:35 AM 38.8 °F 34.6 °F 35.8 °F 89% 30.21 in 5.0 mi ENE 5.8 mph - N/A   Clear
5:55 AM 39.2 °F 37.0 °F 35.6 °F 87% 30.22 in 5.0 mi ENE 3.5 mph - N/A   Clear
6:15 AM 39.2 °F - 35.6 °F 87% 30.23 in 5.0 mi Calm Calm - N/A   Clear
6:35 AM 38.8 °F - 35.1 °F 86% 30.23 in 5.0 mi Calm Calm - N/A   Clear
6:55 AM 38.7 °F - 35.1 °F 87% 30.25 in 5.0 mi Calm Calm - N/A   Clear
7:15 AM 38.8 °F - 35.2 °F 87% 30.26 in 4.0 mi Calm Calm - N/A   Clear
7:35 AM 38.5 °F - 35.1 °F 87% 30.26 in 4.0 mi Calm Calm - N/A   Clear
7:55 AM 39.2 °F - 35.8 °F 88% 30.27 in 4.0 mi Calm Calm - N/A   Clear
8:15 AM 40.3 °F - 35.6 °F 83% 30.27 in 5.0 mi Calm Calm - N/A   Clear
8:35 AM 42.1 °F 38.4 °F 36.5 °F 81% 30.26 in 7.0 mi ENE 5.8 mph - N/A   Clear
8:55 AM 43.0 °F 41.3 °F 36.1 °F 77% 30.26 in 7.0 mi ENE 3.5 mph - N/A   Clear
9:15 AM 44.4 °F - 36.1 °F 73% 30.27 in 10.0 mi Calm Calm - N/A   Clear
9:35 AM 45.3 °F 41.6 °F 36.3 °F 71% 30.27 in 10.0 mi ENE 6.9 mph - N/A   Clear
9:55 AM 46.6 °F - 36.3 °F 67% 30.27 in 10.0 mi Calm Calm - N/A   Clear
10:15 AM 47.5 °F - 36.9 °F 67% 30.26 in 10.0 mi ENE 6.9 mph - N/A   Clear
10:35 AM 48.2 °F - 36.3 °F 63% 30.25 in 10.0 mi East 4.6 mph - N/A   Clear
10:55 AM 49.5 °F - 36.0 °F 60% 30.25 in 10.0 mi ENE 3.5 mph - N/A   Clear
11:15 AM 51.4 °F - 36.3 °F 56% 30.24 in 10.0 mi East 4.6 mph - N/A   Clear
11:35 AM 51.8 °F - 36.5 °F 56% 30.23 in 10.0 mi Calm Calm - N/A   Clear
11:55 AM 52.5 °F - 36.9 °F 55% 30.21 in 10.0 mi ENE 5.8 mph - N/A   Clear
12:15 PM 53.4 °F - 37.8 °F 55% 30.20 in 10.0 mi East 4.6 mph - N/A   Clear
12:35 PM 55.6 °F - 38.1 °F 52% 30.18 in 10.0 mi East 5.8 mph - N/A   Clear
12:55 PM 55.6 °F - 38.5 °F 53% 30.16 in 10.0 mi East 8.1 mph - N/A   Scattered Clouds
1:15 PM 56.1 °F - 39.2 °F 53% 30.15 in 10.0 mi ESE 5.8 mph - N/A   Scattered Clouds
1:35 PM 56.7 °F - 39.6 °F 53% 30.15 in 10.0 mi Calm Calm - N/A   Mostly Cloudy
1:55 PM 56.5 °F - 40.1 °F 54% 30.14 in 10.0 mi East 8.1 mph - N/A   Mostly Cloudy
2:15 PM 57.7 °F - 40.5 °F 53% 30.13 in 10.0 mi Calm Calm - N/A   Clear
2:35 PM 57.6 °F - 40.5 °F 53% 30.13 in 10.0 mi Calm Calm - N/A   Scattered Clouds
2:55 PM 57.0 °F - 41.0 °F 55% 30.12 in 10.0 mi Calm Calm - N/A   Overcast
3:15 PM 57.9 °F - 41.2 °F 54% 30.11 in 10.0 mi Calm Calm - N/A   Overcast
3:35 PM 57.7 °F - 41.5 °F 55% 30.11 in 10.0 mi Calm Calm - N/A   Mostly Cloudy
3:55 PM 57.6 °F - 41.4 °F 55% 30.11 in 10.0 mi Calm Calm - N/A   Mostly Cloudy
4:15 PM 57.9 °F - 41.9 °F 55% 30.11 in 10.0 mi Calm Calm - N/A   Scattered Clouds
4:35 PM 57.4 °F - 42.1 °F 57% 30.10 in 10.0 mi Calm Calm - N/A   Mostly Cloudy
4:55 PM 56.8 °F - 42.4 °F 59% 30.07 in 10.0 mi Calm Calm - N/A   Scattered Clouds
5:15 PM 56.5 °F - 42.8 °F 60% 30.07 in 10.0 mi Calm Calm - N/A   Scattered Clouds
5:35 PM 55.6 °F - 42.8 °F 62% 30.08 in 10.0 mi Calm Calm - N/A   Clear
5:55 PM 54.3 °F - 43.0 °F 66% 30.08 in 10.0 mi Calm Calm - N/A   Clear
6:15 PM 52.7 °F - 45.0 °F 75% 30.07 in 10.0 mi Calm Calm - N/A   Mostly Cloudy
6:35 PM 53.6 °F - 44.8 °F 72% 30.06 in 10.0 mi Calm Calm - N/A   Overcast
6:55 PM 53.4 °F - 43.9 °F 70% 30.06 in 10.0 mi Calm Calm - N/A   Mostly Cloudy
7:15 PM 52.3 °F - 43.7 °F 72% 30.05 in 10.0 mi Calm Calm - N/A   Scattered Clouds
7:35 PM 51.4 °F - 43.7 °F 75% 30.04 in 10.0 mi Calm Calm - N/A   Clear
7:55 PM 52.2 °F - 44.1 °F 74% 30.04 in 10.0 mi Calm Calm - N/A   Mostly Cloudy
8:15 PM 52.5 °F - 44.1 °F 73% 30.03 in 10.0 mi East 3.5 mph - N/A   Scattered Clouds
8:35 PM 53.6 °F - 44.2 °F 71% 30.02 in 10.0 mi East 6.9 mph - N/A   Clear
8:55 PM 54.7 °F - 44.6 °F 69% 30.01 in 10.0 mi East 6.9 mph - N/A   Clear
9:15 PM 56.1 °F - 46.4 °F 70% 30.02 in 10.0 mi Calm Calm - N/A   Clear
9:35 PM 55.9 °F - 47.3 °F 73% 30.03 in 10.0 mi Calm Calm - N/A   Scattered Clouds
9:55 PM 55.2 °F - 47.7 °F 76% 30.03 in 10.0 mi Calm Calm - N/A   Overcast
10:15 PM 55.0 °F - 48.2 °F 78% 30.03 in 10.0 mi Calm Calm - N/A   Overcast
10:35 PM 55.9 °F - 49.6 °F 79% 30.02 in 10.0 mi Calm Calm - N/A   Scattered Clouds
10:55 PM 55.8 °F - 49.8 °F 80% 30.02 in 10.0 mi Calm Calm - N/A   Scattered Clouds
11:15 PM 55.2 °F - 49.6 °F 81% 30.02 in 10.0 mi Calm Calm - N/A   Overcast
11:35 PM 57.2 °F - 51.1 °F 80% 30.02 in 10.0 mi Calm Calm - N/A   Overcast
11:55 PM 58.5 °F - 51.8 °F 79% 30.01 in 10.0 mi Calm Calm - N/A   Overcast